Tacoma, WA

4:32 AM PDT on March 23, 2017 (GMT -0700)
McChord Air Force Base

Weather History for KTCM - February, 2011

Change the Weather History Date:

Friday, February 18, 2011

  Actual Average Record
Temperature  
Mean Temperature 35 °F -  
Max Temperature 44 °F 48 °F 64 °F (1958)
Min Temperature 26 °F 30 °F 16 °F (1993)
Degree Days  
Heating Degree Days 30    
Moisture  
Dew Point 29 °F    
Average Humidity 86    
Maximum Humidity 100    
Minimum Humidity 48    
Precipitation  
Precipitation 0.00 in - - ()
Sea Level Pressure  
Sea Level Pressure 29.89 in    
Wind  
Wind Speed 1 mph (ENE)    
Max Wind Speed 8 mph    
Max Gust Speed -    
Visibility 7 miles    
Events Rain    
Averages and records for this station are not official NWS values.
T = Trace of Precipitation, MM = Missing Value Source: NWS Daily Summary

Daily Weather History Graph

Daily Weather History Graph

Search for Another Location

Airport or City:

Trip Planner

Search our weather history database for the weather conditions in past years. The results will help you decide how hot, cold, wet, or windy it might be!

Date:

Astronomy

Feb. 18, 2011 Rise Set
Actual Time 7:09 AM PST 5:38 PM PST
Civil Twilight 6:38 AM PST 6:09 PM PST
Nautical Twilight 6:03 AM PST 6:45 PM PST
Astronomical Twilight 5:27 AM PST 7:20 PM PST
Moon 6:45 PM PST (2/18) 6:57 AM PST (2/18)
Length of Visible Light 11h 31m
Length of Day
10h 28m
Full, 100% of the Moon is Illuminated
Feb 18
Full
Feb 24
Last Quarter
Mar 4
New
Mar 12
First Quarter
Mar 19
Full

Hourly Weather History & Observations

Time (PST) Temp. Windchill Dew Point Humidity Pressure Visibility Wind Dir Wind Speed Gust Speed Precip Events Conditions
12:55 AM 28.6 °F - 27.9 °F 97% 29.77 in 9.0 mi Calm Calm - N/A   Partly Cloudy
1:55 AM 27.0 °F - 26.1 °F 96% 29.78 in 10.0 mi Calm Calm - N/A   Overcast
2:26 AM 28.4 °F - 28.4 °F 100% 29.78 in 2.5 mi Calm Calm - N/A   Partly Cloudy
2:27 AM 28.4 °F - 28.4 °F 100% 29.78 in 2.0 mi Calm Calm - N/A   Partly Cloudy
2:28 AM 28.4 °F - 28.4 °F 100% 29.78 in 1.8 mi Calm Calm - N/A   Partly Cloudy
2:29 AM 28.4 °F - 26.6 °F 93% 29.78 in 1.5 mi Calm Calm - N/A   Partly Cloudy
2:30 AM 28.4 °F - 26.6 °F 93% 29.78 in 1.2 mi Calm Calm - N/A   Partly Cloudy
2:31 AM 26.6 °F - 26.6 °F 100% 29.78 in 1.0 mi Calm Calm - N/A   Partly Cloudy
2:35 AM 26.6 °F - 26.6 °F 100% 29.76 in 7.0 mi East 1.2 mph - N/A   Clear
2:37 AM 26.6 °F - 26.6 °F 100% 29.78 in 7.0 mi East 1.2 mph - N/A   Clear
2:55 AM 28.0 °F - 27.5 °F 98% 29.78 in 10.0 mi Calm Calm - N/A   Scattered Clouds
3:55 AM 27.1 °F - 26.6 °F 98% 29.78 in 10.0 mi Calm Calm - N/A   Partly Cloudy
4:55 AM 27.3 °F - 25.5 °F 93% 29.79 in 10.0 mi Calm Calm - N/A   Clear
5:55 AM 26.6 °F - 25.5 °F 96% 29.80 in 10.0 mi Calm Calm - N/A   Mostly Cloudy
6:55 AM 27.5 °F - 25.5 °F 92% 29.81 in 10.0 mi Calm Calm - N/A   Scattered Clouds
7:55 AM 29.7 °F - 27.1 °F 90% 29.83 in 10.0 mi Calm Calm - N/A   Overcast
8:55 AM 33.3 °F - 29.3 °F 85% 29.85 in 10.0 mi Calm Calm - N/A   Mostly Cloudy
9:55 AM 37.4 °F - 29.8 °F 74% 29.86 in 10.0 mi Calm Calm - N/A   Overcast
10:55 AM 41.2 °F - 29.3 °F 63% 29.88 in 10.0 mi Calm Calm - N/A   Overcast
11:55 AM 43.7 °F - 28.0 °F 54% 29.88 in 10.0 mi Calm Calm - N/A   Overcast
12:55 PM 44.6 °F - 25.9 °F 48% 29.88 in 10.0 mi Calm Calm - N/A   Overcast
1:55 PM 42.4 °F 38.8 °F 31.8 °F 66% 29.89 in 10.0 mi West 5.8 mph - N/A   Overcast
2:32 PM 42.8 °F 38.6 °F 32.0 °F 66% 29.91 in 10.0 mi WNW 6.9 mph - N/A   Mostly Cloudy
2:44 PM 42.8 °F 39.3 °F 32.0 °F 66% 29.91 in 10.0 mi Variable 5.8 mph - N/A   Mostly Cloudy
2:55 PM 42.6 °F 39.9 °F 32.0 °F 66% 29.91 in 10.0 mi WNW 4.6 mph - 0.00 in   Mostly Cloudy
3:23 PM 42.8 °F 40.1 °F 32.0 °F 66% 29.92 in 10.0 mi Variable 4.6 mph - N/A Rain Light Rain
3:33 PM 42.8 °F 41.1 °F 32.0 °F 66% 29.93 in 10.0 mi NE 3.5 mph - N/A   Partly Cloudy
3:55 PM 43.0 °F 39.5 °F 31.3 °F 63% 29.93 in 10.0 mi ESE 5.8 mph - 0.00 in   Clear
4:55 PM 41.5 °F 36.4 °F 32.7 °F 71% 29.94 in 10.0 mi SW 8.1 mph - N/A   Mostly Cloudy
5:55 PM 40.6 °F 36.7 °F 34.3 °F 78% 29.96 in 10.0 mi NNW 5.8 mph - N/A   Scattered Clouds
6:55 PM 39.4 °F - 34.0 °F 81% 29.98 in 10.0 mi Calm Calm - N/A   Partly Cloudy
7:55 PM 38.1 °F 35.7 °F 32.9 °F 81% 29.99 in 10.0 mi North 3.5 mph - N/A   Clear
8:55 PM 35.2 °F 29.5 °F 31.8 °F 87% 29.99 in 10.0 mi North 6.9 mph - N/A   Clear
9:55 PM 33.6 °F 30.6 °F 31.3 °F 91% 29.99 in 10.0 mi North 3.5 mph - N/A   Partly Cloudy
10:44 PM 28.4 °F - 28.4 °F 100% 29.99 in 2.5 mi Calm Calm - N/A   Clear
10:46 PM 28.4 °F 24.6 °F 28.4 °F 100% 29.99 in 2.0 mi SSE 3.5 mph - N/A   Clear
10:51 PM 28.4 °F 23.3 °F 28.4 °F 100% 29.99 in 2.5 mi South 4.6 mph - N/A   Clear
10:52 PM 28.4 °F 23.3 °F 26.6 °F 93% 29.99 in 3.0 mi South 4.6 mph - N/A   Clear
10:55 PM 27.9 °F 20.6 °F 27.0 °F 96% 29.99 in 4.0 mi South 6.9 mph - N/A   Clear
11:55 PM 27.7 °F - 27.0 °F 97% 29.99 in 3.0 mi Calm Calm - N/A   Clear
11:56 PM 28.4 °F - 26.6 °F 93% 29.99 in 2.5 mi Calm Calm - N/A   Clear
11:57 PM 28.4 °F - 26.6 °F 93% 29.99 in 2.0 mi Calm Calm - N/A   Clear
11:58 PM 28.4 °F - 26.6 °F 93% 29.99 in 1.8 mi Calm Calm - N/A   Clear
11:59 PM 28.4 °F - 26.6 °F 93% 29.99 in 1.5 mi Calm Calm - N/A   Clear